WAT7463 KSHV-KLBB

Flight info

Callsign WAT7463
Flight time 2h 58m
Altitude 6500
Route LOA/N0175F080 KIILO
Aircraft C208/L-SDFGR/C

Departure

Time 2026-05-03 21:21
Airport Shreveport Regional Airport (KSHV)

Arrival

Time 2026-05-04 00:20
Airport Lubbock Preston Smith International Airport (KLBB)
Time Latitude Longitude Altitude Speed Heading
2026-05-03 21:10 32.45133 -93.82782 253 ft 0 kts 120°
2026-05-03 21:16 32.45129 -93.82775 253 ft 5 kts 119°
2026-05-03 21:16 32.45101 -93.82720 246 ft 5 kts 172°
2026-05-03 21:16 32.45072 -93.82722 251 ft 2 kts 182°
2026-05-03 21:16 32.45067 -93.82722 251 ft 0 kts 182°
2026-05-03 21:17 32.45059 -93.82722 251 ft 5 kts 182°
2026-05-03 21:17 32.45025 -93.82705 251 ft 12 kts 123°
2026-05-03 21:17 32.45036 -93.82520 249 ft 22 kts 70°
2026-05-03 21:17 32.45094 -93.82379 246 ft 17 kts 58°
2026-05-03 21:18 32.45154 -93.82250 244 ft 15 kts 66°
2026-05-03 21:18 32.45211 -93.82132 243 ft 20 kts 61°
2026-05-03 21:18 32.45280 -93.81982 240 ft 20 kts 62°
2026-05-03 21:18 32.45331 -93.81877 241 ft 10 kts 62°
2026-05-03 21:19 32.45365 -93.81799 241 ft 14 kts 65°
2026-05-03 21:19 32.45369 -93.81666 240 ft 8 kts 97°
2026-05-03 21:19 32.45368 -93.81656 240 ft 0 kts 98°
2026-05-03 21:19 32.45356 -93.81592 240 ft 13 kts 120°
2026-05-03 21:20 32.45285 -93.81641 241 ft 21 kts 240°
2026-05-03 21:20 32.45143 -93.81940 242 ft 62 kts 243°
2026-05-03 21:20 32.44881 -93.82492 292 ft 87 kts 243°
2026-05-03 21:20 32.44571 -93.83114 488 ft 87 kts 243°
2026-05-03 21:21 32.44267 -93.83724 692 ft 89 kts 234°
2026-05-03 21:21 32.43858 -93.84281 851 ft 92 kts 221°
2026-05-03 21:21 32.43400 -93.84842 985 ft 99 kts 231°
2026-05-03 21:21 32.42954 -93.85505 1124 ft 108 kts 234°
2026-05-03 21:22 32.42490 -93.86249 1255 ft 116 kts 234°
2026-05-03 21:22 32.42011 -93.87045 1377 ft 122 kts 235°
2026-05-03 21:22 32.41512 -93.87857 1488 ft 122 kts 233°
2026-05-03 21:22 32.41012 -93.88670 1621 ft 124 kts 235°
2026-05-03 21:23 32.40507 -93.89506 1741 ft 123 kts 234°
2026-05-03 21:23 32.40013 -93.90333 1870 ft 122 kts 234°
2026-05-03 21:23 32.39522 -93.91130 1992 ft 119 kts 234°
2026-05-03 21:23 32.39055 -93.91919 2109 ft 116 kts 236°
2026-05-03 21:24 32.38582 -93.92706 2226 ft 117 kts 235°
2026-05-03 21:24 32.38113 -93.93488 2351 ft 117 kts 234°
2026-05-03 21:24 32.37641 -93.94277 2499 ft 122 kts 237°
2026-05-03 21:24 32.37129 -93.95130 2616 ft 130 kts 232°
2026-05-03 21:25 32.36601 -93.95985 2757 ft 127 kts 236°
2026-05-03 21:25 32.36086 -93.96849 2904 ft 128 kts 234°
2026-05-03 21:25 32.35575 -93.97710 3004 ft 126 kts 235°
2026-05-03 21:25 32.35075 -93.98539 3124 ft 122 kts 235°
2026-05-03 21:26 32.34590 -93.99339 3242 ft 118 kts 235°
2026-05-03 21:26 32.34113 -94.00125 3364 ft 117 kts 235°
2026-05-03 21:26 32.33636 -94.00911 3499 ft 118 kts 235°
2026-05-03 21:26 32.33159 -94.01701 3612 ft 118 kts 236°
2026-05-03 21:27 32.32687 -94.02488 3738 ft 116 kts 236°
2026-05-03 21:27 32.32216 -94.03268 3862 ft 117 kts 235°
2026-05-03 21:27 32.31739 -94.04055 3984 ft 118 kts 236°
2026-05-03 21:27 32.31262 -94.04852 4102 ft 120 kts 236°
2026-05-03 21:28 32.30782 -94.05646 4230 ft 119 kts 235°
2026-05-03 21:28 32.30285 -94.06465 4333 ft 127 kts 236°
2026-05-03 21:28 32.29763 -94.07336 4535 ft 133 kts 237°
2026-05-03 21:28 32.29224 -94.08231 4724 ft 134 kts 236°
2026-05-03 21:29 32.28677 -94.09131 4922 ft 135 kts 237°
2026-05-03 21:29 32.28138 -94.10025 5120 ft 132 kts 237°
2026-05-03 21:29 32.27600 -94.10907 5305 ft 132 kts 236°
2026-05-03 21:29 32.27066 -94.11791 5506 ft 132 kts 236°
2026-05-03 21:30 32.26531 -94.12675 5702 ft 133 kts 236°
2026-05-03 21:30 32.25997 -94.13558 5907 ft 132 kts 236°
2026-05-03 21:30 32.25459 -94.14447 6106 ft 133 kts 236°
2026-05-03 21:30 32.24921 -94.15337 6313 ft 132 kts 236°
2026-05-03 21:31 32.24388 -94.16216 6483 ft 133 kts 236°
2026-05-03 21:31 32.23826 -94.17148 6491 ft 144 kts 237°
2026-05-03 21:31 32.23230 -94.18144 6493 ft 152 kts 236°
2026-05-03 21:31 32.22619 -94.19157 6498 ft 151 kts 236°
2026-05-03 21:32 32.22003 -94.20170 6499 ft 152 kts 236°
2026-05-03 21:32 32.21385 -94.21188 6501 ft 153 kts 236°
2026-05-03 21:32 32.20771 -94.22201 6503 ft 151 kts 237°
2026-05-03 21:32 32.20160 -94.23210 6503 ft 150 kts 236°
2026-05-03 21:33 32.19549 -94.24213 6497 ft 150 kts 237°
2026-05-03 21:33 32.18944 -94.25211 6498 ft 149 kts 237°
2026-05-03 21:33 32.18342 -94.26203 6496 ft 149 kts 236°
2026-05-03 21:33 32.17732 -94.27195 6490 ft 149 kts 236°
2026-05-03 21:34 32.17123 -94.28178 6486 ft 149 kts 235°
2026-05-03 21:34 32.16527 -94.29159 6486 ft 149 kts 236°
2026-05-03 21:34 32.15917 -94.30166 6485 ft 149 kts 236°
2026-05-03 21:34 32.15324 -94.31142 6485 ft 148 kts 236°
2026-05-03 21:35 32.14723 -94.32129 6485 ft 148 kts 236°
2026-05-03 21:35 32.14127 -94.33111 6487 ft 147 kts 236°
2026-05-03 21:35 32.13532 -94.34089 6490 ft 147 kts 237°
2026-05-03 21:35 32.12934 -94.35071 6488 ft 148 kts 235°
2026-05-03 21:36 32.12336 -94.36053 6490 ft 148 kts 235°
2026-05-03 21:36 32.11739 -94.37034 6488 ft 148 kts 235°
2026-05-03 21:36 32.11139 -94.38017 6485 ft 148 kts 236°
2026-05-03 21:36 32.10541 -94.38999 6497 ft 148 kts 236°
2026-05-03 21:37 32.09939 -94.39991 6491 ft 148 kts 236°
2026-05-03 21:37 32.09338 -94.40976 6496 ft 148 kts 236°
2026-05-03 21:37 32.08734 -94.41967 6495 ft 149 kts 236°
2026-05-03 21:37 32.08132 -94.42952 6493 ft 147 kts 236°
2026-05-03 21:38 32.07535 -94.43930 6490 ft 147 kts 236°
2026-05-03 21:38 32.06940 -94.44905 6490 ft 147 kts 236°
2026-05-03 21:38 32.06347 -94.45883 6484 ft 147 kts 235°
2026-05-03 21:38 32.05749 -94.46858 6487 ft 147 kts 236°
2026-05-03 21:39 32.05158 -94.47823 6493 ft 144 kts 236°
2026-05-03 21:39 32.04570 -94.48786 6493 ft 145 kts 236°
2026-05-03 21:39 32.03980 -94.49751 6493 ft 144 kts 237°
2026-05-03 21:39 32.03397 -94.50708 6496 ft 143 kts 236°
2026-05-03 21:40 32.02809 -94.51666 6493 ft 145 kts 236°
2026-05-03 21:40 32.02217 -94.52638 6489 ft 146 kts 236°
2026-05-03 21:40 32.01630 -94.53598 6485 ft 144 kts 235°
2026-05-03 21:40 32.01045 -94.54553 6488 ft 144 kts 236°
2026-05-03 21:41 32.00458 -94.55510 6491 ft 144 kts 235°
2026-05-03 21:41 31.99871 -94.56468 6495 ft 144 kts 236°
2026-05-03 21:41 31.99286 -94.57430 6492 ft 145 kts 235°
2026-05-03 21:41 31.98705 -94.58379 6501 ft 145 kts 235°
2026-05-03 21:42 31.98109 -94.59349 6499 ft 144 kts 235°
2026-05-03 21:42 31.97532 -94.60291 6497 ft 144 kts 234°
2026-05-03 21:42 31.96947 -94.61244 6494 ft 144 kts 234°
2026-05-03 21:42 31.96364 -94.62197 6492 ft 143 kts 234°
2026-05-03 21:43 31.95781 -94.63145 6490 ft 143 kts 234°
2026-05-03 21:43 31.95199 -94.64094 6494 ft 143 kts 234°
2026-05-03 21:43 31.94618 -94.65043 6496 ft 142 kts 235°
2026-05-03 21:43 31.94039 -94.65988 6495 ft 142 kts 235°
2026-05-03 21:44 31.93459 -94.66930 6501 ft 142 kts 235°
2026-05-03 21:44 31.92874 -94.67883 6503 ft 144 kts 234°
2026-05-03 21:44 31.92282 -94.68851 6499 ft 147 kts 235°
2026-05-03 21:44 31.91680 -94.69835 6504 ft 150 kts 235°
2026-05-03 21:45 31.91069 -94.70828 6498 ft 150 kts 234°
2026-05-03 21:45 31.90461 -94.71817 6500 ft 150 kts 234°
2026-05-03 21:45 31.89845 -94.72817 6498 ft 152 kts 234°
2026-05-03 21:45 31.89227 -94.73826 6498 ft 152 kts 235°
2026-05-03 21:46 31.88605 -94.74839 6497 ft 152 kts 234°
2026-05-03 21:46 31.87984 -94.75848 6491 ft 152 kts 234°
2026-05-03 21:46 31.87366 -94.76854 6493 ft 151 kts 234°
2026-05-03 21:46 31.86749 -94.77852 6491 ft 151 kts 234°
2026-05-03 21:47 31.86135 -94.78852 6497 ft 150 kts 235°
2026-05-03 21:47 31.85521 -94.79848 6495 ft 151 kts 235°
2026-05-03 21:47 31.84904 -94.80850 6497 ft 151 kts 234°
2026-05-03 21:47 31.84286 -94.81854 6500 ft 151 kts 235°
2026-05-03 21:48 31.83670 -94.82854 6496 ft 151 kts 234°
2026-05-03 21:48 31.83054 -94.83853 6496 ft 151 kts 235°
2026-05-03 21:48 31.82441 -94.84848 6500 ft 150 kts 235°
2026-05-03 21:48 31.81827 -94.85842 6493 ft 151 kts 234°
2026-05-03 21:49 31.81208 -94.86843 6497 ft 151 kts 235°
2026-05-03 21:49 31.80589 -94.87854 6497 ft 153 kts 234°
2026-05-03 21:49 31.79959 -94.88869 6488 ft 154 kts 234°
2026-05-03 21:49 31.79543 -94.89541 6490 ft 153 kts 235°
2026-05-03 21:50 31.78919 -94.90555 6494 ft 153 kts 235°
2026-05-03 21:50 31.78331 -94.91605 6482 ft 154 kts 239°
2026-05-03 21:50 31.77802 -94.92692 6485 ft 152 kts 242°
2026-05-03 21:50 31.77322 -94.93794 6480 ft 151 kts 243°
2026-05-03 21:51 31.76878 -94.94904 6470 ft 150 kts 252°
2026-05-03 21:51 31.76945 -94.96096 6443 ft 155 kts 307°
2026-05-03 21:51 31.77744 -94.95947 6075 ft 152 kts 108°
2026-05-03 21:51 31.77201 -94.94780 6166 ft 143 kts 117°
2026-05-03 21:52 31.76856 -94.93886 6750 ft 100 kts 111°
2026-05-03 21:52 31.76556 -94.92970 6504 ft 137 kts 112°
2026-05-03 21:52 31.76268 -94.91933 6736 ft 125 kts 108°
2026-05-03 21:52 31.76033 -94.91027 6998 ft 111 kts 107°
2026-05-03 21:53 31.75680 -94.90176 6943 ft 126 kts 140°
2026-05-03 21:53 31.74855 -94.89922 6966 ft 125 kts 193°
2026-05-03 21:53 31.74131 -94.90408 7089 ft 121 kts 235°
2026-05-03 21:53 31.73909 -94.91329 7214 ft 120 kts 276°
2026-05-03 21:54 31.74074 -94.92285 7339 ft 119 kts 279°
2026-05-03 21:54 31.74223 -94.93248 7458 ft 120 kts 280°
2026-05-03 21:54 31.74380 -94.94216 7592 ft 122 kts 280°
2026-05-03 21:54 31.74537 -94.95199 7710 ft 121 kts 280°
2026-05-03 21:55 31.74692 -94.96170 7837 ft 120 kts 279°
2026-05-03 21:55 31.74846 -94.97134 7953 ft 120 kts 279°
2026-05-03 21:55 31.75000 -94.98118 7995 ft 126 kts 279°
2026-05-03 21:55 31.75170 -94.99168 8003 ft 135 kts 280°
2026-05-03 21:56 31.75349 -95.00276 7996 ft 141 kts 279°
2026-05-03 21:56 31.75531 -95.01421 7998 ft 144 kts 279°
2026-05-03 21:56 31.75719 -95.02595 7990 ft 148 kts 279°
2026-05-03 21:56 31.75907 -95.03790 7989 ft 150 kts 280°
2026-05-03 21:57 31.76099 -95.05004 7984 ft 152 kts 280°
2026-05-03 21:57 31.76292 -95.06225 7984 ft 152 kts 279°
2026-05-03 21:57 31.76485 -95.07435 7983 ft 153 kts 279°
2026-05-03 21:57 31.76681 -95.08682 7977 ft 154 kts 280°
2026-05-03 21:58 31.76875 -95.09915 7981 ft 154 kts 280°
2026-05-03 21:58 31.77071 -95.11161 7979 ft 154 kts 279°
2026-05-03 21:58 31.77267 -95.12396 7974 ft 153 kts 279°
2026-05-03 21:58 31.77461 -95.13625 7976 ft 153 kts 279°
2026-05-03 21:59 31.77653 -95.14854 7971 ft 152 kts 279°
2026-05-03 21:59 31.77846 -95.16080 7968 ft 152 kts 279°
2026-05-03 21:59 31.78039 -95.17305 7969 ft 153 kts 279°
2026-05-03 21:59 31.78229 -95.18517 7967 ft 153 kts 279°
2026-05-03 22:00 31.78421 -95.19743 7962 ft 152 kts 279°
2026-05-03 22:00 31.78615 -95.20970 7967 ft 153 kts 279°
2026-05-03 22:00 31.78807 -95.22198 7964 ft 153 kts 279°
2026-05-03 22:00 31.79000 -95.23428 7964 ft 153 kts 279°
2026-05-03 22:01 31.79192 -95.24661 7966 ft 153 kts 279°
2026-05-03 22:01 31.79385 -95.25890 7967 ft 154 kts 279°
2026-05-03 22:01 31.79578 -95.27126 7967 ft 154 kts 279°
2026-05-03 22:01 31.79772 -95.28365 7957 ft 155 kts 279°
2026-05-03 22:02 31.79965 -95.29612 7960 ft 155 kts 279°
2026-05-03 22:02 31.80159 -95.30855 7961 ft 155 kts 279°
2026-05-03 22:02 31.80354 -95.32094 7958 ft 152 kts 279°
2026-05-03 22:02 31.80543 -95.33320 7960 ft 153 kts 277°
2026-05-03 22:03 31.80733 -95.34551 7963 ft 154 kts 278°
2026-05-03 22:03 31.80928 -95.35792 7962 ft 154 kts 279°
2026-05-03 22:03 31.81122 -95.37035 7963 ft 155 kts 279°
2026-05-03 22:03 31.81317 -95.38288 7965 ft 156 kts 279°
2026-05-03 22:04 31.81512 -95.39544 7970 ft 156 kts 279°
2026-05-03 22:04 31.81707 -95.40802 7975 ft 156 kts 278°
2026-05-03 22:04 31.81902 -95.42061 7973 ft 157 kts 279°
2026-05-03 22:04 31.82098 -95.43324 7977 ft 157 kts 279°
2026-05-03 22:05 31.82294 -95.44590 7978 ft 158 kts 279°
2026-05-03 22:05 31.82493 -95.45858 7979 ft 157 kts 278°
2026-05-03 22:05 31.82688 -95.47122 7984 ft 157 kts 278°
2026-05-03 22:05 31.82883 -95.48384 7978 ft 157 kts 278°
2026-05-03 22:06 31.83079 -95.49643 7978 ft 157 kts 279°
2026-05-03 22:06 31.83270 -95.50900 7978 ft 157 kts 278°
2026-05-03 22:06 31.83465 -95.52166 7981 ft 156 kts 278°
2026-05-03 22:06 31.83658 -95.53415 7980 ft 156 kts 278°
2026-05-03 22:07 31.83852 -95.54671 7981 ft 156 kts 278°
2026-05-03 22:07 31.84045 -95.55925 7981 ft 156 kts 279°
2026-05-03 22:07 31.84237 -95.57180 7981 ft 157 kts 279°
2026-05-03 22:07 31.84431 -95.58444 7975 ft 157 kts 279°
2026-05-03 22:08 31.84626 -95.59710 7984 ft 157 kts 279°
2026-05-03 22:08 31.84820 -95.60976 7983 ft 157 kts 279°
2026-05-03 22:08 31.85015 -95.62244 7989 ft 158 kts 279°
2026-05-03 22:08 31.85209 -95.63514 7981 ft 158 kts 279°
2026-05-03 22:09 31.85404 -95.64788 7979 ft 158 kts 279°
2026-05-03 22:09 31.85601 -95.66058 7979 ft 157 kts 279°
2026-05-03 22:09 31.85793 -95.67323 7982 ft 158 kts 279°
2026-05-03 22:10 31.86183 -95.69868 7982 ft 159 kts 279°
2026-05-03 22:10 31.86376 -95.71140 7993 ft 157 kts 278°
2026-05-03 22:10 31.86567 -95.72409 7990 ft 157 kts 278°
2026-05-03 22:10 31.86762 -95.73680 7995 ft 159 kts 278°
2026-05-03 22:11 31.86956 -95.74944 7993 ft 159 kts 278°
2026-05-03 22:11 31.87148 -95.76223 7996 ft 159 kts 278°
2026-05-03 22:11 31.87345 -95.77501 7995 ft 159 kts 278°
2026-05-03 22:11 31.87544 -95.78800 7997 ft 159 kts 278°
2026-05-03 22:12 31.87739 -95.80082 7997 ft 159 kts 278°
2026-05-03 22:12 31.87931 -95.81349 7997 ft 159 kts 278°
2026-05-03 22:12 31.88125 -95.82635 7998 ft 160 kts 278°
2026-05-03 22:12 31.88320 -95.83926 7998 ft 160 kts 278°
2026-05-03 22:13 31.88515 -95.85211 8000 ft 160 kts 278°
2026-05-03 22:13 31.88711 -95.86499 8000 ft 160 kts 279°
2026-05-03 22:13 31.88904 -95.87782 8000 ft 160 kts 278°
2026-05-03 22:13 31.89100 -95.89079 8001 ft 160 kts 278°
2026-05-03 22:14 31.89298 -95.90366 8003 ft 159 kts 277°
2026-05-03 22:14 31.89490 -95.91649 8002 ft 159 kts 277°
2026-05-03 22:14 31.89681 -95.92930 8005 ft 159 kts 277°
2026-05-03 22:14 31.89875 -95.94210 8003 ft 159 kts 277°
2026-05-03 22:15 31.90068 -95.95490 8004 ft 159 kts 278°
2026-05-03 22:15 31.90258 -95.96771 8004 ft 159 kts 279°
2026-05-03 22:15 31.90456 -95.98055 8006 ft 160 kts 278°
2026-05-03 22:15 31.90646 -95.99337 8010 ft 159 kts 277°
2026-05-03 22:16 31.90841 -96.00626 8009 ft 159 kts 277°
2026-05-03 22:16 31.91032 -96.01906 8009 ft 159 kts 277°
2026-05-03 22:16 31.91222 -96.03191 8009 ft 159 kts 278°
2026-05-03 22:16 31.91416 -96.04468 8009 ft 159 kts 278°
2026-05-03 22:17 31.91610 -96.05761 8008 ft 159 kts 278°
2026-05-03 22:17 31.91807 -96.07043 8007 ft 159 kts 278°
2026-05-03 22:17 31.91993 -96.08320 8011 ft 160 kts 278°
2026-05-03 22:17 31.92189 -96.09626 8014 ft 162 kts 278°
2026-05-03 22:18 31.92386 -96.10932 8012 ft 162 kts 278°
2026-05-03 22:18 31.92576 -96.12233 8009 ft 161 kts 278°
2026-05-03 22:18 31.92771 -96.13532 8015 ft 160 kts 278°
2026-05-03 22:18 31.92962 -96.14831 8010 ft 162 kts 279°
2026-05-03 22:19 31.93176 -96.16125 8015 ft 160 kts 276°
2026-05-03 22:19 31.93351 -96.17420 8011 ft 160 kts 275°
2026-05-03 22:19 31.93538 -96.18711 8009 ft 160 kts 276°
2026-05-03 22:19 31.93734 -96.20001 8012 ft 160 kts 277°
2026-05-03 22:20 31.93924 -96.21288 8010 ft 160 kts 276°
2026-05-03 22:20 31.94115 -96.22577 8006 ft 159 kts 276°
2026-05-03 22:20 31.94304 -96.23856 8004 ft 158 kts 277°
2026-05-03 22:20 31.94493 -96.25129 8006 ft 159 kts 277°
2026-05-03 22:21 31.94684 -96.26413 8002 ft 159 kts 277°
2026-05-03 22:21 31.94879 -96.27694 8006 ft 159 kts 276°
2026-05-03 22:21 31.95065 -96.28981 8005 ft 160 kts 276°
2026-05-03 22:21 31.95255 -96.30269 8004 ft 159 kts 276°
2026-05-03 22:22 31.95444 -96.31549 8004 ft 159 kts 276°
2026-05-03 22:22 31.95632 -96.32829 8005 ft 158 kts 276°
2026-05-03 22:22 31.95820 -96.34104 8005 ft 158 kts 276°
2026-05-03 22:22 31.96006 -96.35359 8002 ft 157 kts 276°
2026-05-03 22:23 31.96192 -96.36624 8000 ft 157 kts 276°
2026-05-03 22:23 31.96376 -96.37885 8002 ft 156 kts 276°
2026-05-03 22:23 31.96563 -96.39157 8001 ft 158 kts 276°
2026-05-03 22:23 31.96751 -96.40432 8000 ft 158 kts 276°
2026-05-03 22:24 31.96938 -96.41709 8006 ft 159 kts 276°
2026-05-03 22:24 31.97127 -96.42996 8006 ft 160 kts 276°
2026-05-03 22:24 31.97319 -96.44290 8005 ft 159 kts 276°
2026-05-03 22:24 31.97505 -96.45572 8009 ft 160 kts 276°
2026-05-03 22:25 31.97694 -96.46865 8005 ft 160 kts 274°
2026-05-03 22:25 31.97879 -96.48158 8007 ft 160 kts 275°
2026-05-03 22:25 31.98072 -96.49452 8006 ft 161 kts 275°
2026-05-03 22:25 31.98265 -96.50761 8005 ft 161 kts 275°
2026-05-03 22:26 31.98454 -96.52059 8010 ft 161 kts 275°
2026-05-03 22:26 31.98643 -96.53358 8006 ft 161 kts 275°
2026-05-03 22:26 31.98832 -96.54653 8004 ft 160 kts 275°
2026-05-03 22:26 31.99030 -96.55945 8010 ft 161 kts 281°
2026-05-03 22:27 31.99239 -96.57242 8006 ft 161 kts 275°
2026-05-03 22:27 31.99396 -96.58539 8007 ft 160 kts 276°
2026-05-03 22:27 31.99581 -96.59835 8008 ft 161 kts 277°
2026-05-03 22:27 31.99771 -96.61127 8005 ft 159 kts 276°
2026-05-03 22:28 31.99982 -96.62402 8003 ft 158 kts 277°
2026-05-03 22:28 32.00168 -96.63668 8006 ft 157 kts 278°
2026-05-03 22:28 32.00348 -96.64945 8006 ft 158 kts 275°
2026-05-03 22:28 32.00512 -96.66236 8007 ft 160 kts 276°
2026-05-03 22:29 32.00697 -96.67532 8009 ft 160 kts 277°
2026-05-03 22:29 32.00886 -96.68832 8003 ft 162 kts 277°
2026-05-03 22:29 32.01075 -96.70140 7996 ft 162 kts 277°
2026-05-03 22:29 32.01263 -96.71447 7997 ft 162 kts 276°
2026-05-03 22:30 32.01490 -96.72746 7992 ft 162 kts 275°
2026-05-03 22:30 32.01645 -96.74056 7991 ft 162 kts 273°
2026-05-03 22:30 32.01827 -96.75369 7992 ft 163 kts 276°
2026-05-03 22:30 32.01922 -96.76668 7980 ft 158 kts 268°
2026-05-03 22:31 32.02128 -96.77950 7982 ft 161 kts 280°
2026-05-03 22:31 32.02399 -96.79228 7984 ft 162 kts 278°
2026-05-03 22:31 32.02587 -96.80533 7986 ft 161 kts 275°
2026-05-03 22:31 32.02771 -96.81834 7989 ft 161 kts 275°
2026-05-03 22:32 32.02953 -96.83135 7986 ft 161 kts 275°
2026-05-03 22:32 32.03140 -96.84437 7981 ft 160 kts 274°
2026-05-03 22:32 32.03322 -96.85720 7981 ft 158 kts 274°
2026-05-03 22:32 32.03499 -96.87000 7983 ft 157 kts 268°
2026-05-03 22:33 32.03570 -96.88254 7966 ft 154 kts 274°
2026-05-03 22:33 32.03839 -96.89484 7974 ft 155 kts 280°
2026-05-03 22:33 32.04060 -96.90725 7973 ft 154 kts 274°
2026-05-03 22:33 32.04227 -96.91978 7975 ft 156 kts 274°
2026-05-03 22:34 32.04341 -96.92815 7976 ft 156 kts 274°
2026-05-03 22:34 32.04518 -96.94075 7974 ft 156 kts 275°
2026-05-03 22:34 32.04690 -96.95338 7978 ft 157 kts 274°
2026-05-03 22:34 32.04937 -96.97016 7974 ft 157 kts 276°
2026-05-03 22:35 32.05111 -96.98288 7978 ft 158 kts 276°
2026-05-03 22:35 32.05229 -96.99156 7978 ft 160 kts 276°
2026-05-03 22:35 32.05411 -97.00445 7978 ft 159 kts 276°
2026-05-03 22:35 32.05594 -97.01729 7980 ft 159 kts 276°
2026-05-03 22:36 32.05776 -97.03016 7980 ft 159 kts 276°
2026-05-03 22:36 32.05959 -97.04304 7980 ft 160 kts 276°
2026-05-03 22:36 32.06141 -97.05598 7981 ft 160 kts 276°
2026-05-03 22:36 32.06326 -97.06898 7982 ft 161 kts 276°
2026-05-03 22:37 32.06510 -97.08200 7979 ft 161 kts 276°
2026-05-03 22:37 32.06694 -97.09496 7977 ft 161 kts 276°
2026-05-03 22:37 32.06875 -97.10798 7976 ft 161 kts 276°
2026-05-03 22:37 32.07059 -97.12095 7977 ft 160 kts 276°
2026-05-03 22:38 32.07242 -97.13391 7973 ft 160 kts 276°
2026-05-03 22:38 32.07423 -97.14680 7976 ft 160 kts 276°
2026-05-03 22:38 32.07604 -97.15971 7973 ft 159 kts 276°
2026-05-03 22:38 32.07785 -97.17257 7972 ft 159 kts 276°
2026-05-03 22:39 32.07965 -97.18542 7973 ft 159 kts 276°
2026-05-03 22:39 32.08146 -97.19831 7973 ft 159 kts 276°
2026-05-03 22:39 32.08326 -97.21114 7973 ft 159 kts 276°
2026-05-03 22:39 32.08505 -97.22399 7975 ft 159 kts 276°
2026-05-03 22:40 32.08685 -97.23682 7968 ft 158 kts 275°
2026-05-03 22:40 32.08861 -97.24956 7970 ft 157 kts 275°
2026-05-03 22:40 32.09046 -97.26231 7967 ft 158 kts 275°
2026-05-03 22:40 32.09220 -97.27505 7969 ft 157 kts 275°
2026-05-03 22:41 32.09398 -97.28776 7968 ft 158 kts 276°
2026-05-03 22:41 32.09574 -97.30056 7966 ft 158 kts 275°
2026-05-03 22:41 32.09763 -97.31319 7970 ft 159 kts 276°
2026-05-03 22:41 32.09938 -97.32601 7969 ft 158 kts 274°
2026-05-03 22:42 32.10102 -97.33883 7968 ft 157 kts 266°
2026-05-03 22:42 32.10189 -97.35146 7955 ft 157 kts 276°
2026-05-03 22:42 32.10451 -97.36418 7956 ft 158 kts 278°
2026-05-03 22:42 32.10648 -97.37679 7961 ft 159 kts 276°
2026-05-03 22:43 32.10825 -97.38979 7957 ft 159 kts 275°
2026-05-03 22:43 32.10996 -97.40265 7960 ft 158 kts 276°
2026-05-03 22:43 32.11237 -97.41517 7962 ft 155 kts 272°
2026-05-03 22:43 32.11351 -97.42778 7959 ft 155 kts 270°
2026-05-03 22:44 32.11506 -97.44039 7961 ft 156 kts 273°
2026-05-03 22:44 32.11686 -97.45300 7958 ft 157 kts 274°
2026-05-03 22:44 32.11863 -97.46551 7959 ft 156 kts 274°
2026-05-03 22:44 32.12032 -97.47816 7964 ft 156 kts 272°
2026-05-03 22:45 32.12279 -97.49068 7952 ft 157 kts 274°
2026-05-03 22:45 32.12401 -97.50346 7951 ft 156 kts 271°
2026-05-03 22:45 32.12554 -97.51618 7958 ft 158 kts 273°
2026-05-03 22:45 32.12734 -97.52894 7959 ft 157 kts 274°
2026-05-03 22:46 32.12915 -97.54166 7955 ft 158 kts 274°
2026-05-03 22:46 32.13056 -97.55441 7956 ft 153 kts 259°
2026-05-03 22:46 32.13181 -97.56694 7951 ft 157 kts 278°
2026-05-03 22:46 32.13434 -97.57950 7952 ft 158 kts 277°
2026-05-03 22:47 32.13619 -97.59233 7962 ft 158 kts 275°
2026-05-03 22:47 32.13806 -97.60504 7961 ft 157 kts 277°
2026-05-03 22:47 32.13973 -97.61776 7964 ft 156 kts 273°
2026-05-03 22:47 32.14127 -97.63046 7964 ft 157 kts 277°
2026-05-03 22:48 32.14314 -97.64314 7963 ft 157 kts 275°
2026-05-03 22:48 32.14478 -97.65592 7965 ft 157 kts 276°
2026-05-03 22:48 32.14650 -97.66869 7963 ft 158 kts 275°
2026-05-03 22:48 32.14826 -97.68149 7965 ft 158 kts 275°
2026-05-03 22:49 32.14999 -97.69424 7962 ft 157 kts 276°
2026-05-03 22:49 32.15191 -97.70684 7964 ft 156 kts 277°
2026-05-03 22:49 32.15356 -97.71944 7966 ft 155 kts 272°
2026-05-03 22:49 32.15512 -97.73208 7967 ft 156 kts 274°
2026-05-03 22:50 32.15683 -97.74471 7965 ft 156 kts 274°
2026-05-03 22:50 32.15856 -97.75729 7964 ft 155 kts 274°
2026-05-03 22:50 32.16184 -97.76947 7964 ft 160 kts 291°
2026-05-03 22:50 32.16674 -97.78134 7964 ft 161 kts 291°
2026-05-03 22:51 32.17146 -97.79336 7967 ft 162 kts 289°
2026-05-03 22:51 32.17618 -97.80543 7970 ft 162 kts 291°
2026-05-03 22:51 32.18093 -97.81746 7972 ft 162 kts 291°
2026-05-03 22:51 32.18566 -97.82950 7974 ft 161 kts 290°
2026-05-03 22:52 32.19041 -97.84153 7973 ft 162 kts 291°
2026-05-03 22:52 32.19508 -97.85358 7974 ft 161 kts 290°
2026-05-03 22:52 32.19980 -97.86565 7977 ft 162 kts 291°
2026-05-03 22:52 32.20457 -97.87776 7980 ft 163 kts 291°
2026-05-03 22:53 32.20933 -97.88988 7983 ft 163 kts 290°
2026-05-03 22:53 32.21409 -97.90198 7980 ft 163 kts 290°
2026-05-03 22:53 32.21876 -97.91414 7983 ft 163 kts 291°
2026-05-03 22:53 32.22351 -97.92623 7985 ft 162 kts 291°
2026-05-03 22:54 32.22830 -97.93830 7987 ft 162 kts 289°
2026-05-03 22:54 32.23303 -97.95038 7987 ft 162 kts 289°
2026-05-03 22:54 32.23768 -97.96230 7986 ft 162 kts 290°
2026-05-03 22:54 32.24242 -97.97452 7990 ft 161 kts 289°
2026-05-03 22:55 32.24705 -97.98629 7990 ft 160 kts 290°
2026-05-03 22:55 32.25175 -97.99836 7992 ft 159 kts 289°
2026-05-03 22:55 32.25633 -98.00994 7995 ft 158 kts 290°
2026-05-03 22:55 32.26086 -98.02168 7989 ft 158 kts 290°
2026-05-03 22:56 32.26547 -98.03348 7991 ft 158 kts 291°
2026-05-03 22:56 32.27007 -98.04526 7989 ft 158 kts 291°
2026-05-03 22:56 32.27466 -98.05703 7991 ft 158 kts 289°
2026-05-03 22:56 32.27924 -98.06883 8000 ft 159 kts 289°
2026-05-03 22:57 32.28390 -98.08071 8004 ft 160 kts 290°
2026-05-03 22:57 32.28857 -98.09265 8005 ft 160 kts 289°
2026-05-03 22:57 32.29321 -98.10463 8007 ft 161 kts 289°
2026-05-03 22:57 32.29790 -98.11660 8007 ft 161 kts 289°
2026-05-03 22:58 32.30256 -98.12862 8010 ft 160 kts 288°
2026-05-03 22:58 32.30720 -98.14054 8007 ft 160 kts 289°
2026-05-03 22:58 32.31182 -98.15251 8003 ft 160 kts 291°
2026-05-03 22:58 32.31653 -98.16438 8002 ft 159 kts 289°
2026-05-03 22:59 32.32108 -98.17624 8000 ft 158 kts 289°
2026-05-03 22:59 32.32571 -98.18810 8001 ft 159 kts 291°
2026-05-03 22:59 32.33031 -98.19999 7996 ft 159 kts 291°
2026-05-03 22:59 32.33491 -98.21182 7993 ft 158 kts 289°
2026-05-03 23:00 32.33947 -98.22359 7992 ft 158 kts 290°
2026-05-03 23:00 32.34404 -98.23538 7991 ft 157 kts 289°
2026-05-03 23:00 32.34851 -98.24717 7945 ft 158 kts 291°
2026-05-03 23:00 32.35317 -98.25894 7942 ft 158 kts 289°
2026-05-03 23:01 32.35775 -98.27072 7942 ft 158 kts 289°
2026-05-03 23:01 32.36230 -98.28246 7943 ft 157 kts 289°
2026-05-03 23:01 32.36684 -98.29420 7944 ft 157 kts 288°
2026-05-03 23:01 32.37140 -98.30598 7942 ft 157 kts 290°
2026-05-03 23:02 32.37597 -98.31779 7942 ft 158 kts 290°
2026-05-03 23:02 32.38054 -98.32962 7945 ft 158 kts 288°
2026-05-03 23:02 32.38512 -98.34152 7944 ft 159 kts 290°
2026-05-03 23:02 32.38975 -98.35338 7943 ft 159 kts 290°
2026-05-03 23:03 32.39432 -98.36521 7941 ft 158 kts 290°
2026-05-03 23:03 32.39889 -98.37703 7943 ft 158 kts 290°
2026-05-03 23:03 32.40347 -98.38888 7942 ft 157 kts 289°
2026-05-03 23:03 32.40800 -98.40061 7941 ft 156 kts 289°
2026-05-03 23:04 32.41254 -98.41231 7936 ft 157 kts 290°
2026-05-03 23:04 32.41704 -98.42403 7936 ft 157 kts 289°
2026-05-03 23:04 32.42156 -98.43577 7937 ft 157 kts 288°
2026-05-03 23:04 32.42609 -98.44747 7946 ft 156 kts 288°
2026-05-03 23:05 32.43059 -98.45917 7944 ft 157 kts 288°
2026-05-03 23:05 32.43511 -98.47091 7937 ft 157 kts 288°
2026-05-03 23:05 32.43963 -98.48264 7943 ft 156 kts 289°
2026-05-03 23:05 32.44408 -98.49435 7942 ft 156 kts 289°
2026-05-03 23:06 32.44861 -98.50609 7947 ft 156 kts 290°
2026-05-03 23:06 32.45318 -98.51781 7943 ft 157 kts 290°
2026-05-03 23:06 32.45769 -98.52954 7946 ft 157 kts 289°
2026-05-03 23:06 32.46221 -98.54127 7940 ft 157 kts 290°
2026-05-03 23:07 32.46665 -98.55285 7948 ft 157 kts 289°
2026-05-03 23:07 32.47122 -98.56474 7950 ft 156 kts 288°
2026-05-03 23:07 32.47568 -98.57631 7950 ft 156 kts 289°
2026-05-03 23:07 32.48023 -98.58802 7948 ft 157 kts 288°
2026-05-03 23:08 32.48470 -98.59982 7953 ft 157 kts 288°
2026-05-03 23:08 32.48918 -98.61151 7955 ft 155 kts 288°
2026-05-03 23:08 32.49363 -98.62311 7950 ft 155 kts 288°
2026-05-03 23:08 32.49811 -98.63476 7956 ft 156 kts 290°
2026-05-03 23:09 32.50259 -98.64645 7956 ft 156 kts 290°
2026-05-03 23:09 32.50710 -98.65819 7959 ft 157 kts 288°
2026-05-03 23:09 32.51159 -98.66996 7963 ft 157 kts 289°
2026-05-03 23:09 32.51611 -98.68173 7963 ft 158 kts 290°
2026-05-03 23:10 32.52064 -98.69359 7964 ft 158 kts 290°
2026-05-03 23:10 32.52518 -98.70544 7967 ft 158 kts 290°
2026-05-03 23:10 32.52975 -98.71732 7966 ft 158 kts 290°
2026-05-03 23:10 32.53429 -98.72915 7959 ft 157 kts 288°
2026-05-03 23:11 32.53879 -98.74101 7954 ft 158 kts 289°
2026-05-03 23:11 32.54331 -98.75285 7955 ft 158 kts 289°
2026-05-03 23:11 32.54785 -98.76470 7954 ft 158 kts 288°
2026-05-03 23:11 32.55237 -98.77656 7958 ft 158 kts 288°
2026-05-03 23:12 32.55688 -98.78838 7960 ft 158 kts 288°
2026-05-03 23:12 32.56141 -98.80024 7959 ft 158 kts 288°
2026-05-03 23:12 32.56589 -98.81207 7988 ft 156 kts 289°
2026-05-03 23:12 32.57038 -98.82376 7992 ft 156 kts 288°
2026-05-03 23:13 32.57489 -98.83547 7978 ft 156 kts 289°
2026-05-03 23:13 32.57935 -98.84721 7989 ft 156 kts 288°
2026-05-03 23:13 32.58380 -98.85895 7989 ft 156 kts 289°
2026-05-03 23:13 32.58827 -98.87070 7992 ft 157 kts 289°
2026-05-03 23:14 32.59276 -98.88250 7994 ft 157 kts 288°
2026-05-03 23:14 32.59726 -98.89429 7995 ft 156 kts 288°
2026-05-03 23:14 32.60169 -98.90603 7996 ft 156 kts 288°
2026-05-03 23:14 32.60616 -98.91777 7997 ft 156 kts 290°
2026-05-03 23:15 32.61093 -98.92936 7997 ft 157 kts 289°
2026-05-03 23:15 32.61570 -98.94090 7996 ft 155 kts 289°
2026-05-03 23:15 32.62043 -98.95244 7995 ft 155 kts 291°
2026-05-03 23:15 32.62516 -98.96399 7996 ft 156 kts 289°
2026-05-03 23:16 32.62987 -98.97556 7995 ft 156 kts 291°
2026-05-03 23:16 32.63465 -98.98711 7995 ft 156 kts 290°
2026-05-03 23:16 32.63934 -98.99871 7995 ft 156 kts 290°
2026-05-03 23:16 32.64406 -99.01029 7993 ft 156 kts 291°
2026-05-03 23:17 32.64881 -99.02190 7992 ft 156 kts 290°
2026-05-03 23:17 32.65355 -99.03348 7991 ft 157 kts 291°
2026-05-03 23:17 32.65831 -99.04513 7992 ft 156 kts 290°
2026-05-03 23:17 32.66305 -99.05675 7989 ft 157 kts 290°
2026-05-03 23:18 32.66775 -99.06833 7990 ft 157 kts 289°
2026-05-03 23:18 32.67089 -99.07608 7990 ft 156 kts 290°
2026-05-03 23:18 32.67563 -99.08772 7989 ft 156 kts 289°
2026-05-03 23:18 32.68041 -99.09928 7987 ft 156 kts 288°
2026-05-03 23:19 32.68513 -99.11091 7985 ft 156 kts 289°
2026-05-03 23:19 32.68985 -99.12258 7983 ft 157 kts 290°
2026-05-03 23:19 32.69457 -99.13421 7982 ft 157 kts 289°
2026-05-03 23:19 32.69937 -99.14590 7982 ft 157 kts 288°
2026-05-03 23:20 32.70411 -99.15757 7979 ft 157 kts 290°
2026-05-03 23:20 32.70888 -99.16929 7977 ft 157 kts 290°
2026-05-03 23:20 32.71361 -99.18093 7975 ft 157 kts 290°
2026-05-03 23:20 32.71833 -99.19254 7969 ft 156 kts 289°
2026-05-03 23:21 32.72304 -99.20411 7966 ft 155 kts 288°
2026-05-03 23:21 32.72777 -99.21563 7961 ft 155 kts 290°
2026-05-03 23:21 32.73236 -99.22709 7961 ft 154 kts 288°
2026-05-03 23:21 32.73702 -99.23861 7957 ft 154 kts 289°
2026-05-03 23:22 32.74633 -99.26152 7954 ft 154 kts 288°
2026-05-03 23:22 32.75098 -99.27300 7952 ft 154 kts 289°
2026-05-03 23:22 32.75566 -99.28449 7951 ft 155 kts 290°
2026-05-03 23:23 32.76031 -99.29599 7946 ft 154 kts 289°
2026-05-03 23:23 32.76492 -99.30746 7944 ft 154 kts 289°
2026-05-03 23:23 32.76960 -99.31897 7943 ft 155 kts 290°
2026-05-03 23:23 32.77429 -99.33052 7945 ft 156 kts 290°
2026-05-03 23:24 32.77899 -99.34213 7947 ft 156 kts 289°
2026-05-03 23:24 32.78367 -99.35369 7943 ft 155 kts 289°
2026-05-03 23:24 32.78834 -99.36513 7945 ft 154 kts 289°
2026-05-03 23:24 32.79294 -99.37663 7946 ft 154 kts 288°
2026-05-03 23:25 32.79760 -99.38809 7947 ft 154 kts 288°
2026-05-03 23:25 32.80223 -99.39959 7943 ft 154 kts 288°
2026-05-03 23:25 32.80686 -99.41111 7944 ft 154 kts 288°
2026-05-03 23:25 32.81152 -99.42259 7943 ft 155 kts 290°
2026-05-03 23:26 32.81615 -99.43414 7945 ft 154 kts 288°
2026-05-03 23:26 32.82077 -99.44566 7944 ft 154 kts 290°
2026-05-03 23:26 32.82545 -99.45713 7945 ft 154 kts 289°
2026-05-03 23:26 32.83010 -99.46867 7942 ft 155 kts 290°
2026-05-03 23:27 32.83476 -99.48021 7944 ft 156 kts 290°
2026-05-03 23:27 32.83945 -99.49184 7946 ft 156 kts 288°
2026-05-03 23:27 32.84412 -99.50344 7944 ft 155 kts 289°
2026-05-03 23:27 32.84877 -99.51499 7944 ft 155 kts 289°
2026-05-03 23:28 32.85341 -99.52650 7945 ft 156 kts 289°
2026-05-03 23:28 32.85811 -99.53813 7946 ft 156 kts 288°
2026-05-03 23:28 32.86277 -99.54975 7943 ft 155 kts 288°
2026-05-03 23:28 32.86741 -99.56128 7942 ft 155 kts 289°
2026-05-03 23:29 32.87203 -99.57286 7942 ft 155 kts 289°
2026-05-03 23:29 32.87668 -99.58443 7941 ft 155 kts 289°
2026-05-03 23:29 32.88138 -99.59599 7941 ft 155 kts 288°
2026-05-03 23:29 32.88603 -99.60755 7940 ft 155 kts 290°
2026-05-03 23:30 32.89065 -99.61916 7939 ft 155 kts 290°
2026-05-03 23:30 32.89530 -99.63076 7935 ft 155 kts 288°
2026-05-03 23:30 32.89995 -99.64235 7934 ft 155 kts 289°
2026-05-03 23:30 32.90460 -99.65394 7936 ft 155 kts 288°
2026-05-03 23:31 32.90925 -99.66550 7940 ft 155 kts 289°
2026-05-03 23:31 32.91389 -99.67709 7940 ft 155 kts 288°
2026-05-03 23:31 32.91854 -99.68869 7937 ft 155 kts 288°
2026-05-03 23:31 32.92318 -99.70025 7937 ft 155 kts 288°
2026-05-03 23:32 32.92780 -99.71181 7937 ft 155 kts 288°
2026-05-03 23:32 32.93240 -99.72318 7935 ft 155 kts 288°
2026-05-03 23:32 32.93704 -99.73493 7935 ft 155 kts 289°
2026-05-03 23:32 32.94171 -99.74649 7936 ft 155 kts 289°
2026-05-03 23:33 32.94627 -99.75804 7935 ft 155 kts 289°
2026-05-03 23:33 32.95092 -99.76964 7934 ft 155 kts 290°
2026-05-03 23:33 32.95557 -99.78124 7935 ft 156 kts 289°
2026-05-03 23:33 32.96018 -99.79273 7936 ft 155 kts 289°
2026-05-03 23:34 32.96480 -99.80434 7937 ft 155 kts 288°
2026-05-03 23:34 32.96936 -99.81594 7936 ft 155 kts 289°
2026-05-03 23:34 32.97404 -99.82752 7936 ft 155 kts 289°
2026-05-03 23:34 32.97869 -99.83908 7927 ft 154 kts 288°
2026-05-03 23:35 32.98328 -99.85059 7921 ft 154 kts 289°
2026-05-03 23:35 32.98784 -99.86208 7921 ft 153 kts 288°
2026-05-03 23:35 32.99243 -99.87355 7920 ft 153 kts 290°
2026-05-03 23:35 32.99703 -99.88505 7918 ft 154 kts 288°
2026-05-03 23:36 33.00160 -99.89655 7920 ft 154 kts 288°
2026-05-03 23:36 33.00615 -99.90806 7918 ft 154 kts 289°
2026-05-03 23:36 33.01075 -99.91960 7920 ft 154 kts 289°
2026-05-03 23:36 33.01535 -99.93117 7918 ft 155 kts 289°
2026-05-03 23:37 33.01997 -99.94280 7917 ft 156 kts 289°
2026-05-03 23:37 33.02460 -99.95444 7919 ft 155 kts 288°
2026-05-03 23:37 33.02922 -99.96606 7919 ft 155 kts 290°
2026-05-03 23:37 33.03385 -99.97767 7920 ft 155 kts 289°
2026-05-03 23:38 33.03847 -99.98933 7912 ft 155 kts 288°
2026-05-03 23:38 33.04307 -100.00092 7913 ft 155 kts 288°
2026-05-03 23:38 33.04767 -100.01252 7913 ft 155 kts 288°
2026-05-03 23:38 33.05230 -100.02413 7912 ft 155 kts 288°
2026-05-03 23:39 33.05690 -100.03579 7910 ft 156 kts 289°
2026-05-03 23:39 33.06152 -100.04747 7910 ft 156 kts 289°
2026-05-03 23:39 33.06616 -100.05909 7911 ft 155 kts 290°
2026-05-03 23:39 33.07078 -100.07078 7909 ft 156 kts 289°
2026-05-03 23:40 33.07542 -100.08247 7910 ft 156 kts 289°
2026-05-03 23:40 33.08005 -100.09416 7910 ft 156 kts 289°
2026-05-03 23:40 33.08467 -100.10590 7912 ft 156 kts 289°
2026-05-03 23:40 33.08930 -100.11754 7913 ft 156 kts 290°
2026-05-03 23:41 33.09393 -100.12930 7911 ft 157 kts 288°
2026-05-03 23:41 33.09858 -100.14099 7910 ft 156 kts 289°
2026-05-03 23:41 33.10321 -100.15271 7909 ft 156 kts 288°
2026-05-03 23:41 33.10782 -100.16436 7910 ft 155 kts 288°
2026-05-03 23:42 33.11242 -100.17602 7907 ft 155 kts 289°
2026-05-03 23:42 33.11700 -100.18770 7903 ft 156 kts 289°
2026-05-03 23:42 33.12166 -100.19939 7905 ft 156 kts 288°
2026-05-03 23:42 33.12632 -100.21101 7904 ft 156 kts 289°
2026-05-03 23:43 33.13090 -100.22271 7904 ft 156 kts 289°
2026-05-03 23:43 33.13547 -100.23444 7906 ft 156 kts 289°
2026-05-03 23:43 33.14009 -100.24616 7904 ft 156 kts 289°
2026-05-03 23:43 33.14471 -100.25787 7906 ft 156 kts 288°
2026-05-03 23:44 33.14933 -100.26951 7907 ft 155 kts 289°
2026-05-03 23:44 33.15392 -100.28115 7900 ft 155 kts 289°
2026-05-03 23:44 33.15848 -100.29280 7901 ft 154 kts 288°
2026-05-03 23:44 33.16301 -100.30432 7901 ft 154 kts 288°
2026-05-03 23:45 33.16757 -100.31591 7902 ft 154 kts 289°
2026-05-03 23:45 33.17209 -100.32745 7900 ft 153 kts 288°
2026-05-03 23:45 33.17660 -100.33895 7899 ft 154 kts 288°
2026-05-03 23:45 33.18113 -100.35057 7899 ft 154 kts 289°
2026-05-03 23:46 33.18569 -100.36212 7899 ft 154 kts 290°
2026-05-03 23:46 33.19027 -100.37370 7899 ft 154 kts 290°
2026-05-03 23:46 33.19484 -100.38532 7898 ft 154 kts 290°
2026-05-03 23:46 33.19940 -100.39691 7898 ft 155 kts 290°
2026-05-03 23:47 33.20400 -100.40858 7900 ft 155 kts 289°
2026-05-03 23:47 33.20861 -100.42023 7896 ft 155 kts 289°
2026-05-03 23:47 33.21304 -100.43191 7896 ft 155 kts 289°
2026-05-03 23:47 33.21755 -100.44335 7894 ft 154 kts 290°
2026-05-03 23:48 33.22217 -100.45504 7894 ft 153 kts 288°
2026-05-03 23:48 33.22668 -100.46649 7894 ft 152 kts 288°
2026-05-03 23:48 33.23110 -100.47778 7894 ft 152 kts 289°
2026-05-03 23:48 33.23556 -100.48921 7890 ft 152 kts 290°
2026-05-03 23:49 33.24007 -100.50067 7896 ft 152 kts 288°
2026-05-03 23:49 33.24453 -100.51212 7896 ft 152 kts 288°
2026-05-03 23:49 33.24902 -100.52357 7893 ft 152 kts 290°
2026-05-03 23:49 33.25350 -100.53505 7893 ft 152 kts 288°
2026-05-03 23:50 33.25798 -100.54653 7895 ft 152 kts 289°
2026-05-03 23:50 33.26099 -100.55424 7896 ft 152 kts 289°
2026-05-03 23:50 33.26700 -100.56958 7897 ft 152 kts 289°
2026-05-03 23:50 33.27140 -100.58084 7894 ft 152 kts 290°
2026-05-03 23:51 33.27589 -100.59229 7892 ft 152 kts 288°
2026-05-03 23:51 33.28031 -100.60372 7892 ft 151 kts 289°
2026-05-03 23:51 33.28472 -100.61507 7893 ft 151 kts 288°
2026-05-03 23:51 33.28922 -100.62659 7810 ft 155 kts 288°
2026-05-03 23:52 33.29384 -100.63839 7732 ft 157 kts 289°
2026-05-03 23:52 33.29839 -100.65013 7658 ft 156 kts 288°
2026-05-03 23:52 33.30294 -100.66185 7585 ft 155 kts 288°
2026-05-03 23:52 33.30752 -100.67357 7511 ft 155 kts 289°
2026-05-03 23:53 33.31209 -100.68529 7435 ft 156 kts 289°
2026-05-03 23:53 33.31667 -100.69706 7363 ft 157 kts 289°
2026-05-03 23:53 33.32127 -100.70888 7292 ft 157 kts 288°
2026-05-03 23:53 33.32586 -100.72069 7221 ft 157 kts 287°
2026-05-03 23:54 33.33046 -100.73247 7147 ft 157 kts 288°
2026-05-03 23:54 33.33505 -100.74430 7074 ft 157 kts 288°
2026-05-03 23:54 33.33965 -100.75617 7001 ft 157 kts 287°
2026-05-03 23:54 33.34426 -100.76803 6932 ft 158 kts 287°
2026-05-03 23:55 33.34888 -100.77994 6857 ft 158 kts 288°
2026-05-03 23:55 33.35348 -100.79184 6786 ft 158 kts 287°
2026-05-03 23:55 33.35813 -100.80381 6713 ft 159 kts 288°
2026-05-03 23:55 33.36278 -100.81580 6640 ft 159 kts 288°
2026-05-03 23:56 33.36744 -100.82782 6575 ft 160 kts 288°
2026-05-03 23:56 33.37212 -100.83989 6504 ft 160 kts 288°
2026-05-03 23:56 33.37679 -100.85198 6434 ft 160 kts 288°
2026-05-03 23:56 33.38146 -100.86408 6364 ft 160 kts 287°
2026-05-03 23:57 33.38608 -100.87616 6289 ft 160 kts 287°
2026-05-03 23:57 33.39082 -100.88818 6216 ft 160 kts 288°
2026-05-03 23:57 33.39549 -100.90023 6139 ft 159 kts 287°
2026-05-03 23:57 33.40013 -100.91225 6065 ft 159 kts 287°
2026-05-03 23:58 33.40477 -100.92427 5984 ft 159 kts 287°
2026-05-03 23:58 33.40940 -100.93628 5912 ft 159 kts 287°
2026-05-03 23:58 33.41407 -100.94838 5833 ft 161 kts 288°
2026-05-03 23:58 33.41876 -100.96052 5762 ft 161 kts 288°
2026-05-03 23:59 33.42346 -100.97269 5689 ft 161 kts 287°
2026-05-03 23:59 33.42817 -100.98490 5616 ft 161 kts 287°
2026-05-03 23:59 33.43287 -100.99707 5541 ft 161 kts 288°
2026-05-03 23:59 33.43756 -101.00924 5469 ft 161 kts 288°
2026-05-04 00:00 33.44223 -101.02138 5397 ft 160 kts 287°
2026-05-04 00:00 33.44689 -101.03344 5315 ft 159 kts 287°
2026-05-04 00:00 33.45152 -101.04548 5251 ft 159 kts 287°
2026-05-04 00:00 33.45616 -101.05752 5178 ft 159 kts 287°
2026-05-04 00:01 33.46077 -101.06955 5118 ft 159 kts 286°
2026-05-04 00:01 33.46384 -101.07750 5069 ft 158 kts 287°
2026-05-04 00:01 33.46844 -101.08947 4997 ft 158 kts 286°
2026-05-04 00:01 33.47303 -101.10141 4923 ft 158 kts 285°
2026-05-04 00:02 33.47759 -101.11329 4851 ft 157 kts 287°
2026-05-04 00:02 33.48216 -101.12516 4800 ft 156 kts 287°
2026-05-04 00:02 33.48666 -101.13684 4796 ft 153 kts 286°
2026-05-04 00:02 33.49105 -101.14830 4792 ft 151 kts 285°
2026-05-04 00:03 33.49540 -101.15966 4788 ft 149 kts 286°
2026-05-04 00:03 33.49972 -101.17095 4788 ft 150 kts 286°
2026-05-04 00:03 33.50410 -101.18238 4790 ft 151 kts 286°
2026-05-04 00:03 33.50851 -101.19388 4793 ft 153 kts 286°
2026-05-04 00:04 33.51297 -101.20547 4795 ft 154 kts 286°
2026-05-04 00:04 33.51744 -101.21717 4798 ft 155 kts 287°
2026-05-04 00:04 33.52191 -101.22886 4800 ft 155 kts 285°
2026-05-04 00:04 33.52643 -101.24069 4798 ft 156 kts 286°
2026-05-04 00:05 33.53097 -101.25247 4799 ft 155 kts 286°
2026-05-04 00:05 33.53546 -101.26420 4798 ft 155 kts 286°
2026-05-04 00:05 33.53993 -101.27589 4798 ft 154 kts 287°
2026-05-04 00:05 33.54439 -101.28759 4797 ft 154 kts 286°
2026-05-04 00:06 33.54886 -101.29928 4801 ft 154 kts 286°
2026-05-04 00:06 33.55331 -101.31098 4794 ft 155 kts 285°
2026-05-04 00:06 33.55778 -101.32276 4795 ft 157 kts 287°
2026-05-04 00:06 33.56236 -101.33465 4798 ft 158 kts 287°
2026-05-04 00:07 33.56693 -101.34659 4796 ft 157 kts 287°
2026-05-04 00:07 33.57145 -101.35840 4799 ft 157 kts 286°
2026-05-04 00:07 33.57595 -101.37023 4797 ft 156 kts 286°
2026-05-04 00:07 33.58046 -101.38207 4796 ft 156 kts 285°
2026-05-04 00:08 33.58495 -101.39385 4792 ft 155 kts 285°
2026-05-04 00:08 33.58942 -101.40559 4793 ft 155 kts 285°
2026-05-04 00:08 33.59389 -101.41737 4793 ft 155 kts 285°
2026-05-04 00:08 33.59831 -101.42903 4792 ft 155 kts 286°
2026-05-04 00:09 33.60283 -101.44094 4791 ft 155 kts 287°
2026-05-04 00:09 33.60723 -101.45247 4795 ft 154 kts 286°
2026-05-04 00:09 33.61169 -101.46409 4795 ft 153 kts 285°
2026-05-04 00:09 33.61616 -101.47588 4798 ft 153 kts 287°
2026-05-04 00:10 33.62055 -101.48731 4802 ft 152 kts 287°
2026-05-04 00:10 33.62498 -101.49882 4804 ft 152 kts 288°
2026-05-04 00:10 33.63016 -101.50995 4809 ft 157 kts 301°
2026-05-04 00:10 33.63851 -101.51886 4819 ft 164 kts 315°
2026-05-04 00:11 33.64781 -101.52680 4818 ft 164 kts 316°
2026-05-04 00:11 33.65711 -101.53470 4815 ft 162 kts 315°
2026-05-04 00:11 33.66278 -101.54520 4695 ft 146 kts 270°
2026-05-04 00:11 33.66307 -101.55717 4589 ft 146 kts 263°
2026-05-04 00:12 33.66335 -101.56948 4539 ft 148 kts 262°
2026-05-04 00:12 33.66340 -101.58195 4542 ft 149 kts 263°
2026-05-04 00:12 33.66329 -101.59441 4537 ft 149 kts 262°
2026-05-04 00:12 33.66324 -101.60677 4538 ft 147 kts 263°
2026-05-04 00:13 33.66318 -101.61902 4537 ft 147 kts 264°
2026-05-04 00:13 33.66310 -101.63125 4539 ft 146 kts 263°
2026-05-04 00:13 33.66310 -101.64348 4545 ft 146 kts 263°
2026-05-04 00:13 33.66306 -101.65561 4564 ft 144 kts 264°
2026-05-04 00:14 33.66298 -101.66759 4557 ft 142 kts 260°
2026-05-04 00:14 33.66285 -101.67952 4555 ft 144 kts 263°
2026-05-04 00:14 33.66287 -101.69158 4559 ft 145 kts 263°
2026-05-04 00:14 33.66282 -101.70378 4568 ft 147 kts 264°
2026-05-04 00:15 33.66275 -101.71602 4571 ft 147 kts 264°
2026-05-04 00:15 33.66269 -101.72850 4416 ft 147 kts 265°
2026-05-04 00:15 33.66267 -101.73964 4246 ft 118 kts 260°
2026-05-04 00:15 33.66256 -101.74865 4096 ft 101 kts 261°
2026-05-04 00:16 33.66250 -101.75676 3970 ft 95 kts 260°
2026-05-04 00:16 33.66246 -101.76460 3840 ft 92 kts 260°
2026-05-04 00:16 33.66246 -101.77214 3715 ft 88 kts 259°
2026-05-04 00:16 33.66242 -101.77938 3593 ft 87 kts 260°
2026-05-04 00:17 33.66238 -101.78683 3476 ft 93 kts 263°
2026-05-04 00:17 33.66444 -101.79432 3532 ft 96 kts 292°
2026-05-04 00:17 33.66798 -101.80101 3614 ft 99 kts 292°
2026-05-04 00:17 33.67246 -101.80805 3719 ft 109 kts 305°
2026-05-04 00:18 33.67864 -101.81297 4002 ft 112 kts 336°
2026-05-04 00:18 33.68720 -101.81465 3991 ft 131 kts 348°
2026-05-04 00:18 33.69606 -101.81649 4031 ft 130 kts 328°
2026-05-04 00:18 33.70027 -101.82409 4025 ft 100 kts 246°
2026-05-04 00:19 33.69493 -101.82828 3770 ft 104 kts 192°
2026-05-04 00:19 33.68855 -101.82895 3521 ft 87 kts 191°
2026-05-04 00:19 33.68291 -101.82907 3319 ft 76 kts 185°
2026-05-04 00:19 33.67814 -101.82898 3267 ft 62 kts 187°
2026-05-04 00:20 33.67427 -101.82902 3260 ft 51 kts 182°
2026-05-04 00:20 33.67115 -101.82903 3267 ft 29 kts 194°
2026-05-04 00:20 33.67084 -101.83064 3265 ft 21 kts 274°
2026-05-04 00:20 33.67083 -101.83237 3266 ft 17 kts 266°
2026-05-04 00:21 33.67084 -101.83317 3267 ft 5 kts 356°
2026-05-04 00:21 33.67090 -101.83305 3264 ft 0 kts 86°